{"data":{"norad_id":62493,"intl_designator":"2025-003G","name":"STARLINK-32731","alt_names":[],"object_type":"PAYLOAD","status":"ACTIVE","operator":null,"country":"US","launch_date":"2025-01-06","launch_site_code":"AFETR","launch_vehicle":null,"mission":null,"orbit_class":"UNKNOWN","rcs_meters":null,"size_class":null,"mass_kg":null,"dimensions":null,"purposes":["comms"],"wikipedia_slug":null,"has_3d_model":false,"image_url":null,"decayed_at":null,"tle_current":{"epoch":"2026-09-21T16:40:06.998016Z","epoch_age_seconds":71372,"freshness":"FRESH","line1":"1 62493U 25003G   26264.69452544  .00009628  00000+0  35890-3 0  9995","line2":"2 62493  42.9993 262.4092 0001253 277.0630  83.0080 15.27584600 96645","mean_motion":15.275846,"eccentricity":0.0001253,"inclination_deg":42.9993,"raan_deg":262.4092,"arg_perigee_deg":277.063,"mean_anomaly_deg":83.008,"bstar":0.0003589,"rev_number":9664,"period_min":94.266464849148,"perigee_km":482.17561712743,"apogee_km":483.89502691133,"semimajor_km":6861.1723220194,"source":"CELESTRAK","updated_at":"2026-09-22T09:00:49.617243Z"}}}